When you browse on this site, cookies collect data to enhance your experience and personalize the content and advertising you see.
Visit our Privacy Policy to learn more. By continuing to use the site, you agree to this use of cookies and data.

Hourly Weather Billingham

Today, 13 July, Monday

Time Temperature Precipitation Wind Pressure Humidity
00:00 +13°C° 0 mm 3 mps 766 mmHg 72%
01:00 +13°C° 0 mm 4 mps 766 mmHg 72%
02:00 +13°C° 0 mm 4 mps 765 mmHg 73%
03:00 +13°C° 0 mm 4 mps 765 mmHg 73%
04:00 +13°C° 0 mm 4 mps 764 mmHg 76%
05:00 +13°C° 0 mm 4 mps 764 mmHg 79%
06:00 +13°C° 0 mm 5 mps 764 mmHg 82%
07:00 +14°C° 0.1 mm 5 mps 763 mmHg 83%
08:00 +14°C° 0.1 mm 5 mps 763 mmHg 84%
09:00 +15°C° 0.1 mm 5 mps 763 mmHg 86%
10:00 +16°C° 0 mm 5 mps 763 mmHg 82%
11:00 +19°C° 0 mm 6 mps 762 mmHg 79%
12:00 +20°C° 0 mm 6 mps 762 mmHg 76%
13:00 +20°C° 0.1 mm 6 mps 762 mmHg 76%
14:00 +18°C° 0.1 mm 7 mps 761 mmHg 77%
15:00 +18°C° 0.1 mm 7 mps 761 mmHg 77%
16:00 +19°C° 0 mm 6 mps 761 mmHg 77%
17:00 +19°C° 0 mm 6 mps 760 mmHg 78%
18:00 +17°C° 0 mm 5 mps 760 mmHg 78%
19:00 +16°C° 0 mm 5 mps 760 mmHg 83%
20:00 +15°C° 0 mm 4 mps 760 mmHg 87%
21:00 +13°C° 0 mm 4 mps 760 mmHg 92%
22:00 +13°C° 0 mm 4 mps 760 mmHg 91%
23:00 +12°C° 0 mm 4 mps 760 mmHg 90%

Tomorrow, 14 July, Tuesday

Time Temperature Precipitation Wind Pressure Humidity
00:00 +11°C° 0 mm 4 mps 761 mmHg 90%
01:00 +11°C° 0 mm 4 mps 760 mmHg 90%
02:00 +10°C° 0 mm 4 mps 760 mmHg 90%
03:00 +10°C° 0 mm 4 mps 760 mmHg 90%
04:00 +10°C° 0 mm 4 mps 760 mmHg 88%
05:00 +11°C° 0 mm 4 mps 760 mmHg 86%
06:00 +11°C° 0 mm 4 mps 760 mmHg 84%
07:00 +12°C° 0 mm 5 mps 760 mmHg 80%
08:00 +13°C° 0 mm 5 mps 760 mmHg 77%
09:00 +14°C° 0 mm 5 mps 760 mmHg 73%
10:00 +15°C° 0 mm 4 mps 760 mmHg 72%
11:00 +17°C° 0 mm 4 mps 760 mmHg 71%
12:00 +17°C° 0 mm 4 mps 760 mmHg 70%
13:00 +18°C° 0.1 mm 3 mps 760 mmHg 69%
14:00 +18°C° 0.1 mm 3 mps 759 mmHg 67%
15:00 +19°C° 0.1 mm 3 mps 759 mmHg 66%
16:00 +18°C° 0.3 mm 3 mps 759 mmHg 71%
17:00 +17°C° 0.3 mm 4 mps 759 mmHg 76%
18:00 +15°C° 0.3 mm 4 mps 759 mmHg 81%
19:00 +14°C° 0 mm 4 mps 759 mmHg 84%
20:00 +13°C° 0 mm 3 mps 759 mmHg 86%
21:00 +12°C° 0 mm 3 mps 759 mmHg 89%
22:00 +12°C° 0 mm 3 mps 759 mmHg 90%
23:00 +12°C° 0 mm 2 mps 759 mmHg 92%

Day after tomorrow, 15 July, Wednesday

Time Temperature Precipitation Wind Pressure Humidity
00:00 +12°C° 0 mm 2 mps 759 mmHg 93%
01:00 +12°C° 0 mm 2 mps 759 mmHg 93%
02:00 +12°C° 0 mm 2 mps 759 mmHg 93%
03:00 +12°C° 0 mm 2 mps 759 mmHg 93%
04:00 +13°C° 0 mm 2 mps 759 mmHg 92%
05:00 +13°C° 0 mm 2 mps 759 mmHg 90%
06:00 +14°C° 0 mm 2 mps 759 mmHg 89%
07:00 +15°C° 0 mm 2 mps 759 mmHg 85%
08:00 +17°C° 0 mm 2 mps 759 mmHg 80%
09:00 +18°C° 0 mm 2 mps 759 mmHg 75%
10:00 +18°C° 0.1 mm 2 mps 759 mmHg 76%
11:00 +18°C° 0.1 mm 2 mps 760 mmHg 76%
12:00 +18°C° 0.1 mm 2 mps 760 mmHg 76%
13:00 +18°C° 0.1 mm 2 mps 760 mmHg 77%
14:00 +18°C° 0.1 mm 2 mps 760 mmHg 77%
15:00 +18°C° 0.1 mm 2 mps 760 mmHg 78%
16:00 +18°C° 0 mm 2 mps 761 mmHg 80%
17:00 +17°C° 0 mm 2 mps 761 mmHg 82%
18:00 +18°C° 0 mm 1 mps 761 mmHg 84%
19:00 +18°C° 0 mm 1 mps 761 mmHg 86%
20:00 +16°C° 0 mm 1 mps 761 mmHg 87%
21:00 +16°C° 0 mm 1 mps 762 mmHg 89%
22:00 +16°C° 0 mm 1 mps 762 mmHg 89%
23:00 +15°C° 0 mm 2 mps 762 mmHg 90%

16 July, Thursday

Time Temperature Precipitation Wind Pressure Humidity
00:00 +15°C° 0 mm 2 mps 762 mmHg 90%
01:00 +15°C° 0 mm 2 mps 762 mmHg 90%
02:00 +15°C° 0 mm 2 mps 762 mmHg 91%
03:00 +15°C° 0 mm 2 mps 762 mmHg 91%
04:00 +15°C° 0 mm 2 mps 762 mmHg 90%
05:00 +16°C° 0 mm 2 mps 763 mmHg 90%
06:00 +16°C° 0 mm 3 mps 763 mmHg 89%
07:00 +17°C° 0 mm 3 mps 763 mmHg 85%
08:00 +18°C° 0 mm 3 mps 763 mmHg 82%
09:00 +19°C° 0 mm 3 mps 764 mmHg 78%
10:00 +19°C° 0 mm 3 mps 764 mmHg 76%
11:00 +20°C° 0 mm 2 mps 764 mmHg 75%
12:00 +20°C° 0 mm 2 mps 764 mmHg 73%
13:00 +20°C° 0 mm 2 mps 764 mmHg 73%
14:00 +21°C° 0 mm 2 mps 764 mmHg 73%
15:00 +21°C° 0 mm 2 mps 764 mmHg 72%
16:00 +21°C° 0.1 mm 2 mps 764 mmHg 75%
17:00 +22°C° 0.1 mm 1 mps 764 mmHg 77%
18:00 +22°C° 0.1 mm 1 mps 764 mmHg 79%
19:00 +21°C° 0.1 mm 1 mps 764 mmHg 82%
20:00 +20°C° 0.1 mm 1 mps 764 mmHg 86%
21:00 +18°C° 0.1 mm 1 mps 764 mmHg 89%
22:00 +18°C° 0 mm 1 mps 764 mmHg 90%
23:00 +16°C° 0 mm 2 mps 764 mmHg 92%

17 July, Friday

Time Temperature Precipitation Wind Pressure Humidity
00:00 +16°C° 0 mm 2 mps 764 mmHg 93%
01:00 +15°C° 0 mm 2 mps 764 mmHg 93%
02:00 +15°C° 0 mm 2 mps 764 mmHg 94%
03:00 +15°C° 0 mm 2 mps 764 mmHg 94%
04:00 +16°C° 0 mm 2 mps 764 mmHg 93%
05:00 +16°C° 0 mm 3 mps 764 mmHg 92%
06:00 +17°C° 0 mm 3 mps 764 mmHg 90%
07:00 +17°C° 0 mm 3 mps 764 mmHg 89%
08:00 +18°C° 0 mm 3 mps 764 mmHg 87%
09:00 +18°C° 0 mm 3 mps 764 mmHg 85%
10:00 +18°C° 0.1 mm 3 mps 764 mmHg 85%
11:00 +18°C° 0.1 mm 4 mps 764 mmHg 86%
12:00 +18°C° 0.1 mm 4 mps 764 mmHg 86%
13:00 +19°C° 0 mm 4 mps 764 mmHg 86%
14:00 +19°C° 0 mm 3 mps 763 mmHg 85%
15:00 +19°C° 0 mm 3 mps 763 mmHg 85%
16:00 +19°C° 0 mm 3 mps 763 mmHg 84%
17:00 +19°C° 0 mm 4 mps 763 mmHg 83%
18:00 +19°C° 0 mm 4 mps 763 mmHg 81%
19:00 +18°C° 0 mm 4 mps 763 mmHg 85%
20:00 +17°C° 0 mm 4 mps 763 mmHg 89%
21:00 +16°C° 0 mm 3 mps 763 mmHg 92%
22:00 +16°C° 0 mm 3 mps 763 mmHg 92%
23:00 +14°C° 0 mm 3 mps 763 mmHg 93%

18 July, Saturday

Time Temperature Precipitation Wind Pressure Humidity
00:00 +14°C° 0 mm 3 mps 762 mmHg 93%
01:00 +16°C° 0 mm 3 mps 762 mmHg 92%
02:00 +16°C° 0 mm 3 mps 761 mmHg 91%
03:00 +16°C° 0 mm 3 mps 761 mmHg 90%
04:00 +15°C° 0.3 mm 4 mps 761 mmHg 92%
05:00 +15°C° 0.3 mm 4 mps 760 mmHg 93%
06:00 +15°C° 0.3 mm 4 mps 760 mmHg 94%
07:00 +17°C° 0.5 mm 4 mps 759 mmHg 93%
08:00 +16°C° 0.5 mm 5 mps 759 mmHg 92%
09:00 +16°C° 0.5 mm 5 mps 759 mmHg 91%
10:00 +17°C° 0.5 mm 5 mps 758 mmHg 91%
11:00 +17°C° 0.5 mm 5 mps 758 mmHg 90%
12:00 +17°C° 0.5 mm 5 mps 758 mmHg 89%
13:00 +19°C° 0.2 mm 6 mps 758 mmHg 80%
14:00 +20°C° 0.2 mm 7 mps 758 mmHg 72%
15:00 +20°C° 0.2 mm 7 mps 758 mmHg 64%
16:00 +18°C° 0 mm 7 mps 758 mmHg 66%
17:00 +17°C° 0 mm 7 mps 758 mmHg 68%
18:00 +16°C° 0 mm 7 mps 759 mmHg 70%
19:00 +14°C° 0 mm 7 mps 759 mmHg 72%
20:00 +13°C° 0 mm 6 mps 760 mmHg 73%
21:00 +12°C° 0 mm 5 mps 760 mmHg 75%
22:00 +10°C° 0 mm 6 mps 760 mmHg 77%
23:00 +10°C° 0 mm 6 mps 760 mmHg 79%
Show more